• In Russia
  • List of Countries
  • For 7 days
  • Water Temperature
  • Satellite Maps
  • Weather Map
  • Weather Widgets
  • user-avatar
    Login

    Hourly Weather Shusha

    Today, 21 January, Saturday

    Time Temperature Precipitation Wind Pressure Humidity
    00:00 -6°C° 0 mm 0 mps 660 mmHg 92%
    01:00 -6°C° 0 mm 0 mps 660 mmHg 92%
    02:00 -6°C° 0 mm 0 mps 660 mmHg 92%
    03:00 -6°C° 0 mm 0 mps 660 mmHg 92%
    04:00 -7°C° 0 mm 0 mps 659 mmHg 92%
    05:00 -7°C° 0 mm 0 mps 659 mmHg 92%
    06:00 -7°C° 0 mm 0 mps 659 mmHg 91%
    07:00 -5°C° 0 mm 0 mps 660 mmHg 85%
    08:00 -4°C° 0 mm 0 mps 661 mmHg 79%
    09:00 -2°C° 0 mm 0 mps 661 mmHg 72%
    10:00 0°C° 0 mm 1 mps 661 mmHg 68%
    11:00 +1°C° 0 mm 1 mps 661 mmHg 63%
    12:00 +2°C° 0 mm 1 mps 661 mmHg 59%
    13:00 +2°C° 0 mm 1 mps 661 mmHg 60%
    14:00 +2°C° 0 mm 1 mps 661 mmHg 61%
    15:00 +1°C° 0 mm 2 mps 660 mmHg 62%
    16:00 0°C° 0 mm 1 mps 660 mmHg 69%
    17:00 -2°C° 0 mm 1 mps 660 mmHg 77%
    18:00 -4°C° 0 mm 1 mps 659 mmHg 84%
    19:00 -5°C° 0 mm 0 mps 659 mmHg 85%
    20:00 -5°C° 0 mm 0 mps 659 mmHg 85%
    21:00 -6°C° 0 mm 0 mps 659 mmHg 85%
    22:00 -6°C° 0 mm 0 mps 659 mmHg 84%
    23:00 -6°C° 0 mm 1 mps 659 mmHg 84%

    Tomorrow, 22 January, Sunday

    Time Temperature Precipitation Wind Pressure Humidity
    00:00 -6°C° 0 mm 1 mps 659 mmHg 83%
    01:00 -6°C° 0 mm 1 mps 659 mmHg 82%
    02:00 -6°C° 0 mm 1 mps 659 mmHg 82%
    03:00 -6°C° 0 mm 1 mps 659 mmHg 81%
    04:00 -6°C° 0 mm 1 mps 659 mmHg 80%
    05:00 -7°C° 0 mm 1 mps 659 mmHg 80%
    06:00 -7°C° 0 mm 1 mps 659 mmHg 79%
    07:00 -4°C° 0 mm 1 mps 659 mmHg 75%
    08:00 -3°C° 0 mm 1 mps 660 mmHg 70%
    09:00 -2°C° 0 mm 1 mps 660 mmHg 66%
    10:00 -1°C° 0 mm 1 mps 660 mmHg 62%
    11:00 0°C° 0 mm 1 mps 660 mmHg 59%
    12:00 -1°C° 0 mm 2 mps 661 mmHg 55%
    13:00 -1°C° 0 mm 2 mps 661 mmHg 56%
    14:00 -1°C° 0 mm 2 mps 661 mmHg 58%
    15:00 -1°C° 0 mm 2 mps 661 mmHg 59%
    16:00 -3°C° 0 mm 2 mps 661 mmHg 65%
    17:00 -2°C° 0 mm 1 mps 661 mmHg 70%
    18:00 -3°C° 0 mm 1 mps 662 mmHg 76%
    19:00 -3°C° 0.1 mm 1 mps 662 mmHg 76%
    20:00 -3°C° 0.1 mm 1 mps 663 mmHg 77%
    21:00 -4°C° 0.1 mm 1 mps 663 mmHg 78%
    22:00 -4°C° 0.1 mm 1 mps 664 mmHg 79%
    23:00 -4°C° 0.1 mm 1 mps 664 mmHg 80%

    Day after tomorrow, 23 January, Monday

    Time Temperature Precipitation Wind Pressure Humidity
    00:00 -4°C° 0.1 mm 1 mps 665 mmHg 81%
    01:00 -6°C° 0 mm 1 mps 665 mmHg 83%
    02:00 -6°C° 0 mm 1 mps 665 mmHg 85%
    03:00 -7°C° 0 mm 1 mps 665 mmHg 86%
    04:00 -7°C° 0 mm 1 mps 665 mmHg 85%
    05:00 -8°C° 0 mm 1 mps 665 mmHg 85%
    06:00 -8°C° 0 mm 1 mps 665 mmHg 84%
    07:00 -6°C° 0 mm 1 mps 666 mmHg 78%
    08:00 -4°C° 0 mm 1 mps 667 mmHg 72%
    09:00 -3°C° 0 mm 0 mps 667 mmHg 66%
    10:00 -1°C° 0 mm 1 mps 667 mmHg 63%
    11:00 0°C° 0 mm 1 mps 667 mmHg 59%
    12:00 +1°C° 0 mm 1 mps 667 mmHg 55%
    13:00 +1°C° 0 mm 1 mps 667 mmHg 56%
    14:00 +1°C° 0 mm 1 mps 667 mmHg 58%
    15:00 +1°C° 0 mm 1 mps 667 mmHg 59%
    16:00 -1°C° 0 mm 1 mps 666 mmHg 67%
    17:00 -3°C° 0 mm 1 mps 665 mmHg 74%
    18:00 -6°C° 0 mm 0 mps 665 mmHg 82%
    19:00 -6°C° 0 mm 1 mps 665 mmHg 80%
    20:00 -6°C° 0 mm 1 mps 665 mmHg 78%
    21:00 -6°C° 0 mm 1 mps 665 mmHg 76%
    22:00 -6°C° 0 mm 1 mps 665 mmHg 75%
    23:00 -6°C° 0 mm 1 mps 665 mmHg 74%

    24 January, Tuesday

    Time Temperature Precipitation Wind Pressure Humidity
    00:00 -7°C° 0 mm 1 mps 665 mmHg 72%
    01:00 -7°C° 0 mm 1 mps 665 mmHg 71%
    02:00 -7°C° 0 mm 1 mps 665 mmHg 70%
    03:00 -7°C° 0 mm 1 mps 665 mmHg 69%
    04:00 -7°C° 0 mm 1 mps 665 mmHg 69%
    05:00 -7°C° 0 mm 1 mps 665 mmHg 68%
    06:00 -7°C° 0 mm 1 mps 665 mmHg 67%
    07:00 -4°C° 0 mm 1 mps 665 mmHg 63%
    08:00 -3°C° 0 mm 1 mps 666 mmHg 58%
    09:00 -1°C° 0 mm 1 mps 666 mmHg 54%
    10:00 0°C° 0 mm 1 mps 666 mmHg 51%
    11:00 +2°C° 0 mm 1 mps 666 mmHg 47%
    12:00 +3°C° 0 mm 1 mps 666 mmHg 44%
    13:00 +3°C° 0 mm 1 mps 665 mmHg 47%
    14:00 +3°C° 0 mm 1 mps 665 mmHg 50%
    15:00 +3°C° 0 mm 1 mps 664 mmHg 52%
    16:00 +1°C° 0 mm 1 mps 664 mmHg 60%
    17:00 -2°C° 0 mm 1 mps 663 mmHg 68%
    18:00 -4°C° 0 mm 1 mps 662 mmHg 76%
    19:00 -4°C° 0 mm 1 mps 662 mmHg 74%
    20:00 -4°C° 0 mm 1 mps 662 mmHg 71%
    21:00 -4°C° 0 mm 1 mps 662 mmHg 69%
    22:00 -4°C° 0 mm 1 mps 662 mmHg 67%
    23:00 -4°C° 0 mm 1 mps 661 mmHg 65%

    25 January, Wednesday

    Time Temperature Precipitation Wind Pressure Humidity
    00:00 -6°C° 0 mm 2 mps 661 mmHg 63%
    01:00 -6°C° 0 mm 2 mps 660 mmHg 62%
    02:00 -6°C° 0 mm 2 mps 660 mmHg 61%
    03:00 -7°C° 0 mm 2 mps 660 mmHg 60%
    04:00 -7°C° 0 mm 2 mps 659 mmHg 59%
    05:00 -7°C° 0 mm 2 mps 659 mmHg 58%
    06:00 -6°C° 0 mm 2 mps 658 mmHg 57%
    07:00 -5°C° 0 mm 2 mps 659 mmHg 54%
    08:00 -4°C° 0 mm 2 mps 659 mmHg 51%
    09:00 -2°C° 0 mm 2 mps 659 mmHg 48%
    10:00 +1°C° 0 mm 2 mps 658 mmHg 45%
    11:00 +2°C° 0 mm 2 mps 658 mmHg 42%
    12:00 +4°C° 0 mm 2 mps 658 mmHg 39%
    13:00 +4°C° 0 mm 2 mps 657 mmHg 41%
    14:00 +4°C° 0 mm 2 mps 657 mmHg 44%
    15:00 +4°C° 0 mm 2 mps 656 mmHg 46%
    16:00 +3°C° 0 mm 1 mps 656 mmHg 51%
    17:00 +1°C° 0 mm 1 mps 655 mmHg 57%
    18:00 -1°C° 0 mm 1 mps 655 mmHg 62%
    19:00 -1°C° 0 mm 1 mps 654 mmHg 63%
    20:00 -3°C° 0 mm 2 mps 654 mmHg 64%
    21:00 -3°C° 0 mm 2 mps 654 mmHg 65%
    22:00 -3°C° 0 mm 2 mps 654 mmHg 65%
    23:00 -3°C° 0 mm 2 mps 654 mmHg 66%

    26 January, Thursday

    Time Temperature Precipitation Wind Pressure Humidity
    00:00 -3°C° 0 mm 2 mps 653 mmHg 67%
    01:00 -3°C° 0 mm 2 mps 653 mmHg 68%
    02:00 -4°C° 0 mm 2 mps 653 mmHg 68%
    03:00 -4°C° 0 mm 2 mps 653 mmHg 69%
    04:00 -4°C° 0 mm 2 mps 653 mmHg 70%
    05:00 -4°C° 0 mm 2 mps 653 mmHg 71%
    06:00 -2°C° 0 mm 1 mps 653 mmHg 72%
    07:00 -1°C° 0 mm 1 mps 653 mmHg 68%
    08:00 +1°C° 0 mm 1 mps 654 mmHg 64%
    09:00 +2°C° 0 mm 1 mps 655 mmHg 60%
    10:00 +3°C° 0 mm 1 mps 655 mmHg 58%
    11:00 +3°C° 0 mm 1 mps 655 mmHg 56%
    12:00 +3°C° 0 mm 2 mps 655 mmHg 53%
    13:00 +3°C° 0.1 mm 2 mps 655 mmHg 56%
    14:00 +3°C° 0.1 mm 2 mps 654 mmHg 58%
    15:00 +2°C° 0.1 mm 2 mps 654 mmHg 60%
    16:00 +1°C° 0 mm 2 mps 654 mmHg 65%
    17:00 +1°C° 0 mm 1 mps 654 mmHg 71%
    18:00 0°C° 0 mm 1 mps 655 mmHg 76%
    19:00 -1°C° 0.1 mm 1 mps 655 mmHg 77%
    20:00 -1°C° 0.1 mm 1 mps 655 mmHg 78%
    21:00 -1°C° 0.1 mm 1 mps 655 mmHg 79%
    22:00 -1°C° 0.4 mm 1 mps 656 mmHg 82%
    23:00 -1°C° 0.4 mm 1 mps 656 mmHg 85%
    Show more